EW5857 Weather Reports


time (UTC)temp
F
wind
direction
speed
knots
gust
knots
rain 1hr
in
rain 24hr
in
rain mn
in
humidity
%
barometer
mb
20260507002604 48 21 1.7 4.3 0.00 0.00 0.00 82 1013.7
20260507002104 49 0 1.7 3.5 0.00 0.00 0.00 82 1013.7
20260507001605 49 355 1.7 6.1 0.00 0.00 0.00 82 1013.7
20260507001103 49 8 0.9 6.1 0.00 0.00 0.00 82 1013.6
20260506235606 49 0 1.7 4.3 0.00 0.00 0.00 81 1013.6
20260506235104 49 353 0.9 3.5 0.00 0.00 0.00 81 1013.6
20260506234104 50 338 2.6 8.7 0.00 0.00 0.00 80 1013.5
20260506233104 50 4 1.7 5.2 0.00 0.00 0.00 79 1013.5
20260506232604 50 18 2.6 7.8 0.00 0.00 0.00 79 1013.4
20260506231103 50 39 2.6 5.2 0.00 0.00 0.00 78 1013.5
20260506230603 51 30 2.6 7.8 0.00 0.00 0.00 78 1013.5
20260506225605 51 11 2.6 6.1 0.00 0.00 0.00 77 1013.3
20260506225103 51 45 2.6 5.2 0.00 0.00 0.00 77 1013.3
20260506224603 51 25 0.9 0.9 0.00 0.00 0.00 77 1013.3
20260506224104 51 30 1.7 4.3 0.00 0.00 0.00 77 1013.3
20260506223605 51 30 1.7 6.1 0.00 0.00 0.00 77 1013.3
20260506222606 51 21 1.7 4.3 0.00 0.00 0.00 77 1013.2
20260506222103 51 0 2.6 4.3 0.00 0.00 0.00 77 1013.2
20260506221604 51 11 1.7 3.5 0.00 0.00 0.00 77 1013.2
20260506221103 51 34 1.7 4.3 0.00 0.00 0.00 77 1013.2
20260506220603 51 31 1.7 4.3 0.00 0.00 0.00 77 1013.2
20260506220123 51 21 0.9 2.6 0.00 0.00 0.00 77 1013.2
20260506215602 51 21 1.7 3.5 0.00 0.00 0.00 77 1013.1
20260506215102 51 21 0.9 4.3 0.00 0.00 0.00 77 1013.1
20260506214559 52 13 1.7 4.3 0.00 0.00 0.00 77 1013.1
20260506213558 52 25 1.7 6.1 0.00 0.00 0.00 76 1012.9
20260506213057 52 14 2.6 5.2 0.00 0.00 0.00 77 1012.9
20260506212556 52 27 1.7 5.2 0.00 0.00 0.00 77 1012.9
20260506212057 52 3 2.6 5.2 0.00 0.00 0.00 77 1012.8
20260506211557 52 35 2.6 5.2 0.00 0.00 0.00 77 1012.8
20260506211055 52 35 3.5 5.2 0.00 0.00 0.00 77 1012.8
20260506210053 52 23 1.7 4.3 0.00 0.00 0.00 78 1012.7
20260506205553 52 32 1.7 4.3 0.00 0.00 0.00 78 1012.7
20260506205052 52 330 0.9 2.6 0.00 0.00 0.00 78 1012.6
20260506204551 52 312 1.7 2.6 0.00 0.00 0.00 78 1012.5
20260506204051 52 298 0.9 2.6 0.00 0.00 0.00 78 1012.5
20260506203553 52 286 0.0 3.5 0.00 0.00 0.00 78 1012.5
20260506203052 53 272 0.9 3.5 0.00 0.00 0.00 78 1012.4
20260506202045 53 52 0.0 0.9 0.00 0.00 0.00 77 1012.4
20260506201043 53 52 0.0 0.9 0.00 0.00 0.00 76 1012.4
20260506200541 53 52 0.0 0.9 0.00 0.00 0.00 76 1012.3
20260506200039 53 52 0.0 0.0 0.00 0.00 0.00 75 1012.3
20260506195038 53 52 0.0 0.0 0.00 0.00 0.00 74 1012.2
20260506194539 53 52 0.0 0.0 0.00 0.00 0.00 74 1012.2
20260506194037 53 52 0.0 0.0 0.00 0.00 0.00 73 1012.1
20260506192536 54 52 0.0 0.0 0.00 0.00 0.00 73 1011.9
20260506191533 54 52 0.0 0.0 0.00 0.00 0.00 72 1011.8
20260506191034 54 52 0.0 0.9 0.00 0.00 0.00 72 1011.7
20260506190033 54 52 0.0 0.0 0.00 0.00 0.00 71 1011.6
20260506185533 54 52 0.0 0.0 0.00 0.00 0.00 71 1011.5
20260506185032 55 52 0.0 0.9 0.00 0.00 0.00 71 1011.4
20260506184533 55 52 0.0 0.9 0.00 0.00 0.00 70 1011.3
20260506184032 55 52 0.0 0.0 0.00 0.00 0.00 70 1011.4
20260506183033 55 52 0.0 0.9 0.00 0.00 0.00 69 1011.3
20260506182533 55 52 0.0 0.9 0.00 0.00 0.00 69 1011.3
20260506182032 55 52 0.0 1.7 0.00 0.00 0.00 68 1011.2
20260506181032 55 52 0.9 1.7 0.00 0.00 0.00 68 1011.1
20260506180534 55 52 0.9 2.6 0.00 0.00 0.00 68 1011.1
20260506180034 55 52 0.9 2.6 0.00 0.00 0.00 67 1011.1
20260506175533 55 18 1.7 4.3 0.00 0.00 0.00 67 1011.0
20260506175033 55 18 0.9 4.3 0.00 0.00 0.00 66 1011.0
20260506174532 55 350 1.7 3.5 0.00 0.00 0.00 66 1010.9
20260506173532 56 63 0.9 2.6 0.00 0.00 0.00 66 1010.7
20260506173033 56 65 0.9 1.7 0.00 0.00 0.00 66 1010.6
20260506172028 56 65 0.9 1.7 0.00 0.00 0.00 66 1010.6
20260506171527 56 65 0.9 2.6 0.00 0.00 0.00 66 1010.5
20260506171023 56 65 0.9 2.6 0.00 0.00 0.00 66 1010.5
20260506170520 56 65 0.9 1.7 0.00 0.00 0.00 65 1010.4
20260506170024 56 65 0.9 3.5 0.00 0.00 0.00 65 1010.4
20260506165515 56 54 0.9 3.5 0.00 0.00 0.00 65 1010.4
20260506165013 56 110 1.7 3.5 0.00 0.00 0.00 64 1010.4
20260506164511 56 27 0.9 3.5 0.00 0.00 0.00 64 1010.5
20260506164010 56 27 1.7 3.5 0.00 0.00 0.00 63 1010.5
20260506163508 56 78 1.7 2.6 0.00 0.00 0.00 64 1010.5
20260506163010 56 80 1.7 2.6 0.00 0.00 0.00 64 1010.5
20260506162506 56 6 1.7 4.3 0.00 0.00 0.00 63 1010.5
20260506162006 57 0 1.7 4.3 0.00 0.00 0.00 62 1010.4
20260506161007 57 14 2.6 3.5 0.00 0.00 0.00 63 1010.4
20260506160010 57 94 2.6 5.2 0.00 0.00 0.00 63 1010.4
20260506155506 57 128 2.6 6.1 0.00 0.00 0.00 64 1010.4
20260506155006 56 138 2.6 6.1 0.00 0.00 0.00 64 1010.4
20260506154507 56 10 4.3 6.1 0.00 0.00 0.00 63 1010.4
20260506154007 56 82 1.7 6.1 0.00 0.00 0.00 64 1010.4
20260506153507 56 117 2.6 7.8 0.00 0.00 0.00 64 1010.4
20260506153005 56 114 2.6 7.8 0.00 0.00 0.00 64 1010.5
20260506152507 56 0 2.6 6.1 0.00 0.00 0.00 64 1010.4
20260506152004 57 113 3.5 8.7 0.00 0.00 0.00 64 1010.4
20260506151505 57 127 3.5 8.7 0.00 0.00 0.00 64 1010.5
20260506151007 56 23 3.5 8.7 0.00 0.00 0.00 63 1010.4
20260506150506 56 114 3.5 8.7 0.00 0.00 0.00 63 1010.4
20260506150008 56 31 2.6 7.8 0.00 0.00 0.00 62 1010.4
20260506145506 56 3 4.3 10.4 0.00 0.00 0.00 61 1010.4
20260506144506 56 17 3.5 6.1 0.00 0.00 0.00 61 1010.3
20260506144007 56 0 2.6 8.7 0.00 0.00 0.00 61 1010.3
20260506143505 56 31 4.3 11.3 0.00 0.00 0.00 60 1010.3
20260506143006 56 0 7.0 12.2 0.00 0.00 0.00 60 1010.4
20260506142504 56 6 6.1 12.2 0.00 0.00 0.00 60 1010.3
20260506142003 56 45 5.2 11.3 0.00 0.00 0.00 60 1010.2
20260506141507 56 18 4.3 7.8 0.00 0.00 0.00 61 1010.2
20260506140504 56 51 5.2 14.8 0.00 0.00 0.00 61 1010.3
20260506140003 56 21 7.8 14.8 0.00 0.00 0.00 61 1010.2
20260506135001 55 125 2.6 8.7 0.00 0.00 0.00 62 1010.2
20260506134504 55 20 4.3 11.3 0.00 0.00 0.00 63 1010.2
20260506134003 55 147 4.3 11.3 0.00 0.00 0.00 62 1010.2
20260506133502 55 30 3.5 8.7 0.00 0.00 0.00 62 1010.2
20260506133004 55 17 4.3 11.3 0.00 0.00 0.00 64 1010.2
20260506132502 56 13 3.5 14.8 0.00 0.00 0.00 63 1010.2
20260506131501 56 100 3.5 8.7 0.00 0.00 0.00 63 1010.2
20260506131000 56 140 2.6 16.5 0.00 0.00 0.00 63 1010.1
20260506130001 56 0 5.2 12.2 0.00 0.00 0.00 62 1010.1
20260506125001 56 320 4.3 11.3 0.00 0.00 0.00 61 1010.0
20260506124001 55 17 3.5 10.4 0.00 0.00 0.00 61 1009.9
20260506123502 56 0 4.3 10.4 0.00 0.00 0.00 61 1009.9
20260506123000 55 75 3.5 8.7 0.00 0.00 0.00 61 1010.0
20260506122501 55 0 4.3 9.6 0.00 0.00 0.00 61 1009.9
20260506122001 55 1 4.3 9.6 0.00 0.00 0.00 60 1009.9
20260506121500 55 0 3.5 12.2 0.00 0.00 0.00 61 1009.8
20260506120959 55 10 4.3 12.2 0.00 0.00 0.00 61 1009.8
20260506120502 55 21 5.2 10.4 0.00 0.00 0.00 60 1009.8
20260506120000 55 24 3.5 12.2 0.00 0.00 0.00 59 1009.8
20260506115500 56 7 5.2 12.2 0.00 0.00 0.00 60 1009.8
20260506115001 56 16 3.5 9.6 0.00 0.00 0.00 60 1009.8
20260506114001 56 31 6.1 14.8 0.00 0.00 0.00 58 1009.8
20260506113459 56 38 3.5 10.4 0.00 0.00 0.00 60 1009.7
20260506112959 56 39 5.2 10.4 0.00 0.00 0.00 61 1009.7
20260506112459 56 6 3.5 9.6 0.00 0.00 0.00 60 1009.7
20260506111959 56 6 4.3 8.7 0.00 0.00 0.00 65 1009.7
20260506111458 56 49 2.6 8.7 0.00 0.00 0.00 67 1009.6
20260506110958 56 20 3.5 8.7 0.00 0.00 0.00 68 1009.6
20260506110459 56 37 3.5 10.4 0.00 0.00 0.00 67 1009.6
20260506105958 56 18 3.5 10.4 0.00 0.00 0.00 66 1009.6
20260506105458 56 18 5.2 10.4 0.00 0.00 0.00 65 1009.6
20260506104458 56 347 3.5 10.4 0.00 0.00 0.00 64 1009.6
20260506103958 56 31 4.3 11.3 0.00 0.00 0.00 63 1009.6
20260506103457 56 61 6.1 11.3 0.00 0.00 0.00 64 1009.6
20260506102958 56 52 3.5 7.8 0.00 0.00 0.00 64 1009.6
20260506101957 56 23 6.1 13.0 0.00 0.00 0.00 62 1009.6
20260506100958 58 17 5.2 11.3 0.00 0.00 0.00 61 1009.5
20260506100457 58 0 4.3 11.3 0.00 0.00 0.00 60 1009.4
20260506095457 58 54 5.2 9.6 0.00 0.00 0.00 59 1009.3
20260506094957 58 44 2.6 9.6 0.00 0.00 0.00 61 1009.3
20260506094456 57 151 4.3 11.3 0.00 0.00 0.00 60 1009.3
20260506093956 57 39 3.5 11.3 0.00 0.00 0.00 60 1009.2
20260506093456 57 99 4.3 10.4 0.00 0.00 0.00 59 1009.3
20260506092958 57 1 5.2 10.4 0.00 0.00 0.00 59 1009.3
20260506092457 56 37 5.2 10.4 0.00 0.00 0.00 61 1009.2
20260506091455 56 0 5.2 13.9 0.00 0.00 0.00 60 1009.3
20260506090955 56 333 4.3 12.2 0.00 0.00 0.00 64 1009.2
20260506090455 55 47 5.2 12.2 0.00 0.00 0.00 61 1009.1
20260506085955 55 3 6.1 11.3 0.00 0.00 0.00 63 1009.1
20260506085456 56 14 6.1 16.5 0.00 0.00 0.00 63 1009.1
20260506084955 56 353 6.1 16.5 0.00 0.00 0.00 66 1009.0
20260506084455 56 336 4.3 12.2 0.00 0.00 0.00 66 1009.0
20260506083455 55 4 3.5 9.6 0.00 0.00 0.00 70 1009.0
20260506082955 55 35 3.5 4.3 0.00 0.00 0.00 70 1009.0
20260506082455 55 0 4.3 7.8 0.00 0.00 0.00 70 1009.0
20260506081954 55 20 4.3 7.8 0.00 0.00 0.00 71 1008.9
20260506081454 54 20 3.5 4.3 0.00 0.00 0.00 72 1008.8
20260506080954 54 20 3.5 8.7 0.00 0.00 0.00 73 1008.9
20260506080454 54 4 8.7 9.6 0.00 0.00 0.00 75 1008.8
20260506073459 53 0 3.5 9.6 0.00 0.00 0.00 81 1008.8
20260506072956 53 6 3.5 8.7 0.00 0.00 0.00 81 1008.7
20260506072453 53 10 2.6 9.6 0.00 0.00 0.00 81 1008.7
20260506071953 53 25 5.2 9.6 0.00 0.00 0.00 81 1008.7
20260506071452 53 0 3.5 11.3 0.00 0.00 0.00 81 1008.7
20260506070954 53 6 6.1 11.3 0.00 0.00 0.00 82 1008.6
20260506070453 52 30 1.7 10.4 0.00 0.00 0.00 82 1008.7
20260506062451 51 0 3.5 8.7 0.00 0.00 0.00 85 1008.5
20260506061951 51 37 4.3 8.7 0.00 0.00 0.00 85 1008.4
20260506061452 51 20 5.2 8.7 0.00 0.00 0.00 86 1008.4
20260506060952 51 319 2.6 8.7 0.00 0.00 0.00 86 1008.4
20260506060451 51 13 1.7 8.7 0.00 0.00 0.00 86 1008.4
20260506050952 50 333 2.6 9.6 0.00 0.00 0.00 89 1008.5
20260506050451 50 0 1.7 5.2 0.00 0.00 0.00 89 1008.4
20260506044449 49 320 2.6 4.3 0.00 0.00 0.00 88 1008.4
20260506043450 49 321 1.7 5.2 0.00 0.00 0.00 87 1008.5
20260506042949 49 11 1.7 5.2 0.00 0.00 0.00 87 1008.5
20260506042450 49 358 1.7 4.3 0.00 0.00 0.00 87 1008.4
20260506041949 49 7 1.7 6.1 0.00 0.00 0.00 88 1008.4
20260506040948 49 0 2.6 8.7 0.00 0.00 0.00 88 1008.4
20260506040448 49 8 0.9 8.7 0.00 0.00 0.00 88 1008.4
20260506035949 49 28 2.6 8.7 0.00 0.00 0.00 88 1008.5
20260506034947 49 14 1.7 5.2 0.00 0.00 0.00 89 1008.5
20260506034448 49 18 2.6 5.2 0.00 0.00 0.00 89 1008.5
20260506033948 49 25 1.7 3.5 0.00 0.00 0.00 90 1008.6
20260506033447 49 348 1.7 4.3 0.00 0.00 0.00 90 1008.6
20260506032948 49 355 1.7 4.3 0.00 0.00 0.00 90 1008.7
20260506031947 49 0 3.5 5.2 0.00 0.00 0.00 90 1008.7
20260506030949 49 31 2.6 6.1 0.00 0.00 0.00 91 1008.8
20260506030446 49 357 1.7 6.1 0.00 0.00 0.00 91 1008.8
20260506025947 49 37 3.5 5.2 0.00 0.00 0.00 90 1008.9
20260506025448 49 23 3.5 6.1 0.00 0.00 0.00 90 1009.0
20260506024947 49 4 3.5 7.8 0.00 0.00 0.00 90 1009.0
20260506024447 49 0 3.5 7.8 0.00 0.00 0.00 89 1009.1
20260506023946 49 35 3.5 6.1 0.00 0.00 0.00 89 1009.1
20260506023446 49 0 3.5 6.1 0.00 0.00 0.00 89 1009.1
20260506022947 49 341 1.7 5.2 0.00 0.00 0.00 89 1009.2
20260506022447 49 3 3.5 5.2 0.00 0.00 0.00 88 1009.2
20260506021446 49 35 2.6 6.1 0.00 0.00 0.00 88 1009.1
20260506020947 49 72 3.5 7.8 0.00 0.00 0.00 87 1009.2
20260506020447 49 10 3.5 8.7 0.00 0.00 0.00 87 1009.1
20260506015946 49 8 3.5 8.7 0.00 0.00 0.00 87 1009.1
20260506014945 50 30 3.5 7.8 0.00 0.00 0.00 85 1009.1
20260506014446 50 10 2.6 6.1 0.00 0.00 0.00 85 1009.1
20260506013947 50 39 3.5 6.1 0.00 0.00 0.00 85 1009.1
20260506013444 50 347 3.5 9.6 0.00 0.00 0.00 85 1009.2
20260506012943 50 7 4.3 10.4 0.00 0.00 0.00 85 1009.2
20260506011943 50 319 3.5 8.7 0.00 0.00 0.00 84 1009.2
20260506011442 50 27 2.6 8.7 0.00 0.00 0.00 84 1009.3
20260506010942 50 24 2.6 8.7 0.00 0.00 0.00 84 1009.3
20260506010443 50 21 3.5 13.0 0.00 0.00 0.00 84 1009.3
20260506005944 50 32 4.3 13.0 0.00 0.00 0.00 84 1009.4
20260506005442 50 0 2.6 11.3 0.00 0.00 0.00 84 1009.4
20260506004941 50 39 3.5 11.3 0.00 0.00 0.00 84 1009.5
20260506004441 50 0 1.7 7.8 0.00 0.00 0.00 85 1009.4
20260506003941 50 20 3.5 6.1 0.00 0.00 0.00 85 1009.5
20260506003442 50 23 2.6 6.1 0.00 0.00 0.00 85 1009.5